星链-1441 (STARLINK-1441 )

导读 | 豆包AI

STARLINK-1441是美国SpaceX公司星链(Starlink)星座中的一颗低轨通信卫星,于2020年6月4日发射升空。它运行在近地轨道,属于星链组网卫星之一,旨在为全球提供高速互联网服务,尤其覆盖偏远地区。作为SpaceX批量部署的卫星之一,它助力星链系统构建全球卫星通信网络,推动天基互联网基础设施建设,目前该卫星已在轨运行超5年,是星链星座早期组网的组成部分。

基本信息
目录编号:
45658
目录名称:
STARLINK-1441
国际标识:
2020-035B
轨道中心:
EARTH
卫星名称:
星链-1441
卫星全名:
星链-1441 (STARLINK-1441 )
卫星状态:
已陨落 最后检测时间 2024-08-07
发射日期:
2020-06-04 UTC
国别 :
美国 (US)
星等 :
--
轨道信息
数据来源 国际轨道数据
星历时间: 2024-08-08T02:25:19+0800
轨道信息已过期630天
半长轴: 6564.992km
偏心率: 0.0008895
轨道倾角: 53.008°
近地点辐角 266.734°
升交点赤经 69.101°
平近点角 163.580°
近地点: 181.017km
远地点: 192.697km
周期: 88.229分钟
每日圈数: 16.321177
详细信息
固有亮度:
5
最大亮度:
2.5
卫星平台:
Starlink V1.0
覆盖范围:
全球
运营商:
太空探索技术公司
运营商所在国:
美国
制造商(研发单位):
太空探索技术公司
制造商所在国:
美国
使用方式:
暂无
卫星简介
星链(Starlink)计划是由太空探索技术公司(SpaceX)提出的一个巨型低轨卫星互联网星座项目,计划在2019年至2024年间在太空搭建由约1.2万颗卫星组成的“星链”网络,其中1584颗将部署在地球上空550千米处的近地轨道,并从2020年开始工作。该卫星仍在工作。